Flag for Canada Weather past 2 weeks in Maple Ridge, British Columbia, Canada

Now
31 °F

Chilly.


Feels Like: 31 °F
Forecast: 35 / 48 °F
Wind: No wind

Location: P. Meadows Coastal Station

Current Time: Jan 30, 2015 at 4:34:55 AM

Latest Report: Jan 30, 2015 at 4:00 AM


Visibility: N/A

Pressure: 30.33 "Hg

Humidity: 100%

Dew point: 31 °F

Location of Maple RidgeLocation

Historic Weather in Maple Ridge — Graph

°F

Maple Ridge temperature yesterday

Maximum temperature yesterday: 51 °F (at 3:00 PM)
Minimum temperature yesterday: 31 °F (at 2:00 AM)
Average temperature yesterday: 39 °F

Past Weeks' High & Low Weather Summary

 TemperatureHumidityPressure
High61 °F (Jan 26, 3:00 PM)100% (Jan 15, 2:00 AM)30.47 "Hg (Jan 15, 2:00 AM)
Low29 °F (Jan 15, 5:00 AM)56% (Jan 26, 3:00 PM)29.47 "Hg (Jan 18, 1:00 AM)
Average44 °F92%30.17 "Hg
* Reported Jan 15 2:00 AM — Jan 30 2:00 AM, Maple Ridge, Weather by CustomWeather, © 2014

Note: Actual official high and low records may vary slightly from our data, if they occured in-between our weather recording intervals... More about our weather records

Advertising

Maple Ridge weather history for previous 24 hours

 ConditionsComfort  
Time TempWeatherWind HumidityBarometerVisibility
2:00 AM
Jan 30
32 °FChilly.No wind100%30.34 "HgN/A
1:00 AM33 °FChilly.No wind100%30.33 "HgN/A
12:00 AM33 °FChilly.2 mph99%30.33 "HgN/A
11:00 PM
Jan 29
35 °FChilly.No wind99%30.33 "HgN/A
10:00 PM35 °FChilly.No wind98%30.32 "HgN/A
9:00 PM36 °FChilly.2 mph97%30.33 "HgN/A
8:00 PM37 °FChilly.No wind94%30.32 "HgN/A
7:00 PM41 °FQuite cool.No wind85%30.32 "HgN/A
6:00 PM42 °FQuite cool.2 mph82%30.33 "HgN/A
5:00 PM47 °FCool.3 mph69%30.32 "HgN/A
4:00 PM51 °FCool.2 mph61%30.32 "HgN/A
3:00 PM51 °FCool.2 mph59%30.33 "HgN/A
2:00 PM51 °FCool.1 mph61%30.34 "HgN/A
1:00 PM47 °FCool.2 mph65%30.36 "HgN/A
12:00 PM46 °FCool.2 mph78%30.39 "HgN/A
11:00 AM42 °FQuite cool.1 mph92%30.41 "HgN/A
10:00 AM38 °FChilly.No wind96%30.41 "HgN/A
8:00 AM33 °FChilly.1 mph100%30.39 "HgN/A
7:00 AM31 °FChilly.1 mph100%30.39 "HgN/A
6:00 AM34 °FChilly.2 mph100%30.40 "HgN/A
5:00 AM34 °FChilly.1 mph100%30.40 "HgN/A
4:00 AM31 °FChilly.2 mph100%30.41 "HgN/A
Weather by CustomWeather, © 2014

See weather overviewHow to use our weather pages